The Dalles, WA

9:45 AM PST on January 21, 2018 (GMT -0800)
Columbia Gorge Regional-The Dalles

Weather History for KDLS - February, 2014

Change the Weather History Date:

Thursday, February 13, 2014

  Actual Average Record
Temperature  
Mean Temperature 45 °F -  
Max Temperature 55 °F 49 °F 63 °F (1971)
Min Temperature 35 °F 34 °F 15 °F (1949)
Degree Days  
Heating Degree Days 20    
Moisture  
Dew Point 36 °F    
Average Humidity 79    
Maximum Humidity 100    
Minimum Humidity 49    
Precipitation  
Precipitation 0.12 in - - ()
Sea Level Pressure  
Sea Level Pressure 29.97 in    
Wind  
Wind Speed 6 mph (North)    
Max Wind Speed 23 mph    
Max Gust Speed 29 mph    
Visibility 7 miles    
Events Fog , Rain    
Averages and records for this station are not official NWS values.
T = Trace of Precipitation, MM = Missing Value Source: NWS Daily Summary

Daily Weather History Graph

Daily Weather History Graph

Search for Another Location

Airport or City:

Trip Planner

Search our weather history database for the weather conditions in past years. The results will help you decide how hot, cold, wet, or windy it might be!

Date:

Astronomy

Feb. 13, 2014 Rise Set
Actual Time 7:09 AM PST 5:28 PM PST
Civil Twilight 6:38 AM PST 5:59 PM PST
Nautical Twilight 6:04 AM PST 6:34 PM PST
Astronomical Twilight 5:29 AM PST 7:08 PM PST
Moon 4:42 PM PST (2/13) 6:06 AM PST (2/13)
Length of Visible Light 11h 20m
Length of Day
10h 19m
Waxing Gibbous, 99% of the Moon is Illuminated
Feb 13
Waxing Gibbous
Feb 14
Full
Feb 22
Last Quarter
Mar 1
New
Mar 8
First Quarter

Hourly Weather History & Observations

Time (PST) Temp. Windchill Dew Point Humidity Pressure Visibility Wind Dir Wind Speed Gust Speed Precip Events Conditions
12:43 AM 36.0 °F 30.3 °F 35.1 °F 97% 29.83 in 0.2 mi NE 6.9 mph - 0.06 in Fog , Rain Light Rain
12:51 AM 35.6 °F 32.8 °F 35.6 °F 100% 29.83 in 0.2 mi ENE 3.5 mph - 0.06 in Fog , Rain Light Rain
12:53 AM 36.0 °F - 35.1 °F 97% 29.84 in 0.2 mi Calm Calm - 0.06 in Fog Fog
12:57 AM 36.0 °F 32.1 °F 36.0 °F 100% 29.84 in 0.5 mi SE 4.6 mph - 0.00 in Fog Fog
1:05 AM 35.1 °F 32.2 °F 35.1 °F 100% 29.84 in 0.5 mi South 3.5 mph - 0.01 in Fog , Rain Light Rain
1:12 AM 36.0 °F - 35.1 °F 97% 29.85 in 0.5 mi Calm Calm - 0.01 in Fog , Rain Light Rain
1:53 AM 36.0 °F 33.3 °F 36.0 °F 100% 29.87 in 0.8 mi NE 3.5 mph - 0.05 in Rain Light Rain
1:58 AM 36.0 °F - 36.0 °F 100% 29.86 in 0.8 mi Calm Calm - 0.00 in Rain Light Rain
2:14 AM 35.1 °F 28.6 °F 34.0 °F 96% 29.87 in 0.5 mi ENE 8.1 mph - 0.01 in Fog Fog
2:26 AM 36.0 °F 29.6 °F 35.1 °F 97% 29.87 in 0.8 mi East 8.1 mph - 0.01 in   Mist
2:31 AM 37.0 °F 31.0 °F 36.0 °F 96% 29.87 in 1.2 mi East 8.1 mph - 0.01 in   Partly Cloudy
2:34 AM 37.0 °F 30.4 °F 36.0 °F 96% 29.87 in 3.0 mi East 9.2 mph - 0.01 in   Partly Cloudy
2:53 AM 37.9 °F 34.4 °F 37.0 °F 97% 29.88 in 10.0 mi Variable 4.6 mph - 0.01 in   Clear
3:53 AM 45.0 °F 38.2 °F 37.9 °F 76% 29.89 in 10.0 mi WNW 15.0 mph - N/A   Scattered Clouds
4:05 AM 46.9 °F - 37.9 °F 71% 29.89 in 10.0 mi WNW 23.0 mph 28.8 mph 0.00 in Rain Light Rain
4:53 AM 48.0 °F - 39.0 °F 71% 29.92 in 10.0 mi WSW 16.1 mph - 0.00 in   Mostly Cloudy
5:53 AM 46.0 °F 39.9 °F 37.9 °F 73% 29.98 in 10.0 mi WNW 13.8 mph - 0.00 in   Partly Cloudy
6:53 AM 46.0 °F 39.3 °F 35.1 °F 66% 30.00 in 10.0 mi WNW 16.1 mph - N/A   Clear
7:53 AM 45.0 °F 40.6 °F 35.1 °F 68% 30.04 in 10.0 mi West 8.1 mph - N/A   Clear
8:53 AM 46.9 °F - 37.0 °F 68% 30.07 in 10.0 mi Variable 3.5 mph - N/A   Clear
9:53 AM 48.9 °F - 39.0 °F 69% 30.10 in 10.0 mi North 9.2 mph - N/A   Clear
10:53 AM 51.1 °F - 39.9 °F 66% 30.13 in 10.0 mi NW 3.5 mph - N/A   Scattered Clouds
11:53 AM 53.1 °F - 37.9 °F 57% 30.13 in 10.0 mi NNW 10.4 mph - N/A   Scattered Clouds
12:53 PM 54.0 °F - 37.0 °F 53% 30.12 in 10.0 mi NW 17.3 mph - N/A   Clear
1:53 PM 55.0 °F - 36.0 °F 49% 30.11 in 10.0 mi NNW 8.1 mph - N/A   Partly Cloudy
2:53 PM 53.1 °F - 36.0 °F 52% 30.09 in 10.0 mi NNW 12.7 mph - N/A   Clear
3:53 PM 52.0 °F - 37.0 °F 57% 30.09 in 10.0 mi NW 9.2 mph - N/A   Clear
4:53 PM 51.1 °F - 36.0 °F 56% 30.09 in 10.0 mi South 4.6 mph - N/A   Clear
5:53 PM 45.0 °F 42.6 °F 36.0 °F 71% 30.05 in 10.0 mi ENE 4.6 mph - N/A   Clear
6:53 PM 44.1 °F - 36.0 °F 73% 30.04 in 10.0 mi Calm Calm - N/A   Clear
7:53 PM 42.1 °F 40.2 °F 35.1 °F 76% 30.04 in 10.0 mi ESE 3.5 mph - N/A   Clear
8:53 PM 39.9 °F - 34.0 °F 79% 30.02 in 10.0 mi Calm Calm - N/A   Clear
9:53 PM 39.9 °F 36.7 °F 35.1 °F 83% 29.99 in 10.0 mi East 4.6 mph - N/A   Clear
10:53 PM 39.0 °F 35.7 °F 35.1 °F 86% 29.94 in 10.0 mi West 4.6 mph - N/A   Mostly Cloudy
11:53 PM 39.0 °F - 35.1 °F 86% 29.94 in 9.0 mi Calm Calm - 0.00 in Rain Light Rain